SCP
0 0 0 0 0 0 0 0 0 0 0 0 0 0 0 0 0 0 0 0 0 0 0 0 0 0 0 0 0 0 0 0 0 0 0 0 0 0 0 0 0 0 0
0 0 0 0 0 0 0 0 0 0 0 0 0 0 0 0 0 0 0 0 0 0 0 0 0 0 0 0 0 0 0 0 0 0 0 0 0 0 0 0 0 0 0
0 0 0 0 0 0 0 0 0 0 0 0 0 0 0 0 0 0 0 0 0 0 0 0 0 0 0 0 0 0 0 0 0 0 0 0 0 0 0 0 0 0 0
0 0 0 0 0 0 0 0 0 0 0 0 0 0 0 0 0 0 0 0 0 0 0 0 0 0 0 0 0 0 0 0 0 0 0 0 0 0 0 0 0 0 0
0 0 0 0 0 0 0 0 0 0 0 0 0 0 0 0 0 0 0 0 0 0 0 0 0 0 0 0 0 0 0 0 0 0 0 0 0 0 0 0 0 0 0
0 0 0 0 0 0 0 0 0 0 0 0 0 0 0 0 0 0 0 0 0 0 0 0 0 0 0 0 0 0 0 0 0 0 0 0 0 0 0 0 0 0 0
0 0 0 0 0 0 0 0 0 0 0 0 0 0 0 0 0 0 0 0 0 0 0 0 0 0 0 0 0 0 0 0 0 0 0 0 0 0 0 0 0 0 0
0 0 0 0 0 0 0 0 0 0 0 0 0 0 0 0 0 0 0 0 0 0 0 0 0 0 0 0 0 0 0 0 0 0 0 0 0 0 0 0 0 0 0
0 0 0 0 0 0 0 0 0 0 0 0 0 0 0 0 0 0 0 0 0 0 0 0 0 0 0 0 0 0 0 0 0 0 0 0 0 0 0 0 0 0 0
0 0 0 0 0 0 0 0 0 0 0 0 0 0 0 0 0 0 0 0 0 0 0 0 0 0 0 0 0 0 0 0 0 0 0 0 0 0 0 0 0 0 0
0 0 0 0 0 0 0 0 0 0 0 0 0 0 0 0 0 0 0 0 0 0 0 0 0 0 0 0 0 0 0 0 0 0 0 0 0 0 0 0 0 0 0
0 0 0 0 0 0 0 0 0 0 0 0 0 0 0 0 0 0 0 0 0 0 0 0 0 0 0 0 0 0 0 0 0 0 0 0 0 0 0 0 0 0 0
0 0 0 0 0 0 0 0 0 0 0 0 0 0 0 0 0 0 0 0 0 0 0 0 0 0 0 0 0 0 0 0 0 0 0 0 0 0 0 0 0 0 0
0 0 0 0 0 0 0 0 0 0 0 0 0 0 0 0 0 0 0 0 0 0 0 0 0 0 0 0 0 0 0 0 0 0 0 0 0 0 0 0 0 0 0
0 0 0 0 0 0 0 0 0 0 0 0 0 0 0 0 0 0 0 0 0 0 0 0 0 0 0 0 0 0 0 0 0 0 0 0 0 0 0 0 0 0 0
0 0 0 0 0 0 0 0 0 0 0 0 0 0 0 0 0 0 0 0 0 0 0 0 0 0 0 0 0 0 0 0 0 0 0 0 0 0 0 0 0 0 0
0 0 0 0 0 0 0 0 0 0 0 0 0 0 0 0 0 0 0 0 0 0 0 0 0 0 0 0 0 0 0 0 0 0 0 0 0 0 0 0 0 0 0
0 0 0 0 0 0 0 0 0 0 0 0 0 0 0 0 0 0 0 0 0 0 0 0 0 0 0 0 0 0 0 0 0 0 0 0 0 0 0 0 0 0 0
0 0 0 0 0 0 0 0 0 0 0 0 0 0 0 0 0 0 0 0 0 0 0 0 0 0 0 0 0 0 0 0 0 0 0 0 0 0 0 0 0 0 0
0 0 0 0 0 0 0 0 0 0 0 0 0 0 0 0 0 0 0 0 0 0 0 0 0 0 0 0 0 0 0 0 0 0 0 0 0 0 0 0 0 0 0
0 0 0 0 0 0 0 0 0 0 0 0 0 0 0 0 0 0 0 0 0 0 0 0 0 0 0 0 0 0 0 0 0 0 0 0 0 0 0 0 0 0 0
0 0 0 0 0 0 0 0 0 0 0 0 0 0 0 0 0 0 0 0 0 0 0 0 0 0 0 0 0 0 0 0 0 0 0 0 0 0 0 0 0 0 0
0 0 0 0 0 0 0 0 0 0 0 0 0 0 0 0 0 0 0 0 0 0 0 0 0 0 0 0 0 0 0 0 0 0 0 0 0 0 0 0 0 0 0
0 0 0 0 0 0 0 0 0 0 0 0 0 0 0 0 0 0 0 0 0 0 0 0 0 0 0 0 0 0 0 0 0 0 0 0 0 0 0 0 0 0 0
0 0 0 0 0 0 0 0 0 0 0 0 0 0 0 0 0 0 0 0 0 0 0 0 0 0 0 0 0 0 0 0 0 0 0 0 0 0 0 0 0 0 0
0 0 0 0 0 0 0 0 0 0 0 0 0 0 0 0 0 0 0 0 0 0 0 0 0 0 0 0 0 0 0 0 0 0 0 0 0 0 0 0 0 0 0
Wind_Speed
5 8 10 10 9 9 9 9 9 9 9 9 9 9 9 9 9 9 9 9 9 9 9 9 9 9 10 10 11 11 11 10 10 10 10 10 10 10 10 10 9 7 11
7 9 10 10 9 9 9 9 9 9 8 8 8 8 8 8 8 8 9 9 9 9 9 8 8 8 9 9 9 9 9 9 8 7 8 8 8 9 10 10 10 6 10
9 9 9 9 9 9 9 9 9 8 8 8 8 8 8 7 8 8 8 8 8 9 8 8 8 8 8 8 8 8 7 7 6 5 4 3 5 8 9 9 9 9 9
8 9 8 9 9 9 8 8 8 8 8 8 7 7 7 7 7 8 8 8 8 8 8 8 8 8 8 7 7 6 6 5 4 5 2 3 4 7 8 8 8 8 8
7 8 9 10 9 9 8 8 7 7 7 7 7 7 7 7 7 7 7 7 7 7 7 7 7 7 6 6 6 5 5 4 4 4 3 4 4 6 7 7 8 8 8
7 7 8 10 9 9 8 7 7 7 7 7 7 7 7 6 6 6 6 6 6 6 6 6 6 6 6 5 5 5 4 4 4 3 3 3 3 5 6 7 7 7 7
7 7 8 9 9 8 8 7 7 7 6 7 7 7 6 6 6 5 5 5 5 5 5 5 5 5 5 4 4 4 4 4 2 2 3 3 3 5 5 6 6 6 6
7 7 7 7 7 7 7 7 7 7 7 7 7 6 6 6 5 5 5 5 5 5 5 5 5 5 5 4 3 4 4 5 2 2 3 3 4 5 5 5 5 5 6
7 6 5 5 6 6 7 7 7 6 6 7 6 6 5 5 4 4 4 4 5 4 4 4 4 4 4 3 3 3 4 4 3 2 2 2 4 4 4 4 4 4 4
5 5 5 4 4 4 4 6 7 6 6 6 6 5 4 4 3 3 3 3 3 3 3 3 3 3 2 2 2 3 4 4 1 1 1 2 3 3 3 3 3 3 4
5 4 4 4 4 3 3 5 5 5 6 5 4 3 2 1 2 2 2 2 2 2 2 2 2 2 2 1 2 3 3 1 0 1 1 2 2 2 2 2 3 2 3
4 4 3 3 3 3 3 3 2 2 3 2 2 3 1 1 1 2 2 2 2 2 2 1 1 1 1 1 1 2 1 1 0 1 1 2 1 1 1 2 2 3 2
4 4 3 3 3 3 2 1 1 1 1 2 2 2 2 1 1 1 1 1 1 1 0 0 1 1 1 0 0 0 1 1 0 1 1 1 0 1 2 2 2 2 3
4 4 3 3 3 3 2 1 1 1 1 1 1 1 1 1 1 0 1 1 1 0 0 0 0 0 1 1 1 0 1 1 0 1 1 1 0 2 2 3 2 2 3
3 4 3 4 3 2 2 1 1 1 1 1 1 1 1 1 1 1 0 0 0 0 0 0 0 0 1 1 1 0 1 1 0 1 1 0 1 2 2 3 3 3 3
4 4 3 3 3 3 2 1 1 1 1 1 1 1 1 1 1 1 1 0 1 0 0 0 1 0 1 1 1 1 1 1 1 0 1 0 1 2 3 3 4 4 4
4 4 3 3 4 4 3 2 1 1 1 1 1 1 1 1 1 1 1 0 1 0 0 1 1 1 1 1 1 1 1 1 1 1 0 1 1 2 3 3 4 4 5
3 4 3 3 3 4 3 2 1 2 2 1 1 1 1 1 1 1 1 1 1 0 0 0 0 0 1 1 1 1 1 1 2 2 1 1 1 1 1 3 4 5 5
4 4 3 3 3 3 3 2 2 2 2 2 1 1 1 1 0 1 1 1 0 0 0 0 0 0 1 1 1 1 1 1 2 2 1 1 1 0 0 2 3 4 4
4 4 4 3 3 3 2 2 1 2 1 1 1 1 1 1 0 1 1 1 0 0 0 0 0 1 0 1 2 2 2 2 2 2 2 1 1 1 1 0 1 2 4
4 4 4 4 3 3 2 2 2 2 1 1 1 2 2 1 1 1 1 1 1 1 1 1 1 0 1 1 1 2 2 3 2 2 1 1 1 1 1 1 0 0 1
4 4 4 4 4 3 3 2 2 2 2 2 1 1 2 2 1 1 1 1 1 1 1 1 1 1 1 0 0 1 2 2 2 2 1 1 1 1 1 1 1 1 1
4 4 3 4 4 3 3 2 2 2 1 1 1 1 1 1 2 1 1 1 1 1 1 1 1 2 1 1 1 1 1 2 2 2 2 1 1 1 2 1 1 1 1
4 4 3 4 4 4 4 3 4 3 2 2 2 2 2 2 1 2 2 1 1 1 1 1 1 1 1 1 1 1 1 1 1 2 2 2 2 2 2 1 1 2 1
3 3 3 3 4 4 4 4 4 3 2 1 1 2 2 2 2 1 1 1 2 2 2 2 1 1 1 2 2 1 2 1 1 2 3 2 2 2 2 2 2 2 2
3 3 3 3 3 4 4 4 4 4 3 2 2 2 2 1 1 2 2 1 2 2 2 2 2 2 2 2 2 1 1 2 2 2 2 2 3 3 2 2 2 2 2
Wind_Direction
115 127 131 125 120 119 114 108 102 100 98 94 91 87 83 80 80 77 76 77 73 72 74 76 76 74 71 69 67 65 63 61 64 66 66 65 64 62 58 52 56 54 58
124 127 131 126 123 122 117 111 104 102 100 97 92 89 85 82 82 79 77 76 72 69 70 73 76 77 74 71 66 63 62 58 61 64 67 64 65 62 57 53 56 55 57
120 124 127 123 125 123 121 114 107 106 103 99 95 91 87 83 82 78 76 76 71 68 67 67 70 75 74 72 68 63 58 53 49 44 51 68 66 64 60 57 56 54 54
119 123 126 123 126 125 124 120 115 111 107 102 99 96 90 86 83 80 77 76 74 71 69 65 64 66 70 71 69 62 55 44 28 17 28 71 67 63 60 59 55 54 53
114 119 122 123 122 123 123 125 123 119 111 104 101 98 93 88 84 79 75 75 76 73 71 67 63 62 67 67 64 60 48 28 5 10 29 64 64 65 60 59 56 54 53
113 115 126 125 124 122 120 120 127 123 117 109 103 99 93 87 82 78 75 75 76 73 70 68 65 60 60 63 57 47 31 9 1 8 35 67 69 69 68 65 61 55 52
111 113 126 127 127 125 121 115 121 124 123 116 107 102 95 88 80 73 75 74 78 75 71 70 65 60 56 56 50 32 12 359 11 22 44 62 69 70 69 65 61 54 48
105 109 119 125 127 128 126 121 119 122 120 115 108 101 93 89 85 78 78 77 79 77 73 69 63 57 54 47 36 20 5 349 13 24 51 72 80 71 64 63 58 54 47
103 109 114 119 119 121 122 122 114 114 114 110 107 101 93 92 89 84 83 86 84 80 75 67 59 52 48 42 26 9 355 350 359 16 44 69 79 68 60 61 55 48 45
106 111 115 113 117 118 120 114 115 115 111 106 103 100 96 98 95 86 83 87 87 83 76 70 63 53 40 27 8 353 341 339 357 24 34 78 82 63 46 46 46 44 39
111 113 121 125 121 123 131 123 119 122 121 119 115 117 117 119 107 95 91 81 96 91 81 73 61 44 18 359 340 328 325 321 351 42 34 82 82 53 30 20 19 14 16
133 129 120 117 116 114 127 128 136 130 139 145 142 143 137 83 92 102 100 102 99 101 90 69 35 12 1 336 302 320 313 311 312 78 66 74 69 34 8 1 352 353 345
145 133 124 123 119 111 102 121 127 124 133 126 121 121 123 114 115 113 120 128 131 138 123 333 294 306 326 327 297 287 313 312 8 78 85 87 8 303 311 314 324 332 332
140 138 132 126 125 130 123 121 125 119 127 125 111 116 130 124 103 92 117 140 137 144 139 236 248 278 328 311 283 248 302 312 28 89 103 76 308 272 284 293 297 308 309
145 145 149 142 136 130 128 143 127 132 129 121 107 104 95 120 117 86 71 49 54 101 124 266 284 314 300 288 283 301 288 294 305 126 118 31 304 292 286 296 291 294 301
159 153 153 151 144 138 139 151 148 136 128 121 121 117 100 105 117 111 76 47 341 26 32 315 287 281 270 283 291 294 301 300 290 184 156 198 315 294 283 288 291 288 293
164 156 160 164 152 152 160 173 152 136 131 133 133 131 123 105 119 121 123 97 290 285 38 348 334 332 301 299 304 302 296 298 293 282 191 179 222 274 283 291 297 292 294
161 160 163 168 161 167 163 166 158 150 145 149 143 140 136 117 141 132 138 195 262 344 95 262 288 307 307 300 299 287 273 282 281 270 245 201 205 227 263 286 290 286 294
166 161 161 167 165 167 159 162 160 151 153 149 140 137 145 152 159 150 169 187 207 70 254 272 319 284 285 304 303 299 286 263 270 277 262 240 230 217 226 272 282 283 289
165 159 164 169 166 158 148 151 145 143 150 139 138 143 147 157 165 140 156 167 164 172 230 227 283 324 312 306 310 308 290 269 258 253 257 256 245 245 263 260 244 279 282
161 162 169 166 164 154 157 164 165 174 168 148 158 154 161 158 175 162 163 179 175 195 215 205 201 294 322 321 337 309 289 265 242 236 238 246 245 239 229 251 229 233 271
163 167 170 163 169 170 171 172 174 166 176 165 162 168 171 166 173 186 173 186 185 184 229 227 195 198 274 286 213 313 311 306 290 250 231 233 241 233 235 246 240 256 260
165 169 174 170 171 172 161 157 150 130 118 128 155 170 192 178 174 192 195 180 182 181 211 224 200 198 216 251 222 172 212 250 306 281 242 237 241 240 237 226 228 253 255
169 166 172 171 170 168 161 166 166 170 184 197 185 182 181 169 177 191 198 187 182 193 209 222 214 222 193 223 252 237 226 233 243 297 290 259 254 256 255 258 244 241 226
155 159 166 166 171 169 172 175 180 187 192 173 156 162 177 177 179 190 198 192 198 204 204 206 214 230 215 212 217 235 250 269 248 234 276 287 289 267 261 258 245 244 227
149 155 163 167 173 171 175 180 186 189 181 166 172 182 183 177 188 199 203 203 213 212 209 205 206 218 227 226 222 217 214 223 237 234 255 275 280 277 271 264 254 247 250